{"data":{"norad_id":66980,"epoch":"2026-05-25T04:29:22.015968Z","epoch_age_seconds":58551,"freshness":"FRESH","line1":"1 66980U 25288X   26145.18706037  .00017169  00000+0  63179-3 0  9996","line2":"2 66980  43.0007 311.7031 0002180 280.1653  79.8952 15.27589436 26982","mean_motion":15.27589436,"eccentricity":0.000218,"inclination_deg":43.0007,"raan_deg":311.7031,"arg_perigee_deg":280.1653,"mean_anomaly_deg":79.8952,"bstar":0.00063179,"rev_number":2698,"period_min":94.266166423005,"perigee_km":481.52510899709,"apogee_km":484.51657381594,"semimajor_km":6861.1578414065,"source":"CELESTRAK","updated_at":"2026-05-25T13:38:21.427078Z"}}